Regional Weather Roundup
Issued by NWS

Home | Current Version | Previous Version | Graphics & Text | Print | Product List | Glossary On
Versions: 1 2 3 4 5 6 7 8 9 10 11 12 13 14 15 16 17 18 19 20 21 22 23 24 25 26 27 28 29 30 31 32 33 34 35 36 37 38 39 40 41 42 43 44 45 46 47 48 49 50
000
ASUS45 KCYS 250810
RWRWY

WYOMING REGIONAL WEATHER ROUNDUP
NATIONAL WEATHER SERVICE CHEYENNE WY
100 AM MST THU DEC 25 2014

NOTE:  "FAIR" INDICATES FEW OR NO CLOUDS BELOW 12,000 FEET
WITH NO SIGNIFICANT WEATHER AND/OR OBSTRUCTIONS TO VISIBILITY.

WYZ001-250900-
YELLOWSTONE NATIONAL PARK

CITY           SKY/WX    TMP DP  RH WIND       PRES   REMARKS
LK YELLOWSTONE   N/A     22  19  89 NW3       29.37S
W YELLOWSTONE  NOT AVBL

$$
WYZ002>013-054>058-071-098>099-250900-
NORTHERN WYOMING

CITY           SKY/WX    TMP DP  RH WIND       PRES   REMARKS
JACKSON        CLOUDY    28  28 100 SW10      29.35S VSB 3/4 WCI  19
CODY           CLOUDY    28  25  86 N8        29.42S WCI  20
GREYBULL       LGT SNOW  29  27  92 NW8       29.41S FOG     WCI  21
WORLAND        FAIR      20  15  81 SW5       29.40S WCI  13
SHERIDAN       FLURRIES  32  26  78 N7        29.49R WCI  26
BUFFALO        FLURRIES  30  27  88 NW15G26   29.45R WCI  19
GILLETTE       CLOUDY    30  25  81 N9        29.41R WCI  22
HULETT           N/A    N/A N/A N/A MISG        N/A
NEWCASTLE      PTSUNNY   32  25  74 SE6       29.41F WCI  26

$$
WYZ014>020-022>026-101>103-250900-
CENTRAL WYOMING

CITY           SKY/WX    TMP DP  RH WIND       PRES   REMARKS
BIG PINEY      CLOUDY    24  19  81 E3        29.39F
PINEDALE       CLOUDY    27  27 100 CALM      29.40F
DUBOIS         NOT AVBL
LANDER         CLOUDY    23  16  74 NW12      29.35S WCI  12
RIVERTON       MOCLDY    22  16  78 NW10      29.36F WCI  11
CASPER         CLOUDY    34  21  59 SW18G28   29.39F WCI  23
DOUGLAS        CLOUDY    37  24  59 NE3       29.39S

$$
WYZ021-027>030-104>119-250900-
SOUTHERN WYOMING

CITY           SKY/WX    TMP DP  RH WIND       PRES   REMARKS
EVANSTON       LGT SNOW  31  29  92 SW21G30   29.38F VSB 1   WCI  18
KEMMERER       CLOUDY    32  28  86 SW8G16    29.38F WCI  25
FORT BRIDGER   PTSUNNY   34  27  75 W9        29.41F WCI  27
ROCK SPRINGS   CLOUDY    26  15  63 S18       29.39F WCI  13
DIXON          CLOUDY    33  19  57 S10G22    29.54F WCI  24
RAWLINS        FAIR      29  20  69 SW31G44   29.43F WCI  13
SARATOGA       FAIR      32  23  69 S12G24    29.46F WCI  23
LARAMIE        FAIR      30  19  63 SW24G35   29.42F WCI  16
CHEYENNE       FAIR      33  18  53 CALM      29.43F
TORRINGTON     MOCLDY    34  25  69 NE7       29.41S WCI  28
PINE BLUFFS    FAIR      32  21  64 S5        29.44S WCI  27

$$



USA.gov is the U.S. government's official web portal to all federal, state and local government web resources and services.